Regional Weather Roundup
Issued by NWS State College, PA

Home | Current Version | Previous Version | Text Only | Print | Product List | Glossary Off
Versions: 1 2 3 4 5 6 7 8 9 10 11 12 13 14 15 16 17 18 19 20 21 22 23 24 25 26 27 28 29 30 31 32 33 34 35 36 37 38 39 40 41 42 43 44 45 46 47 48 49 50

000
ASUS41 KCTP 161903
RWRCTP

REGIONAL WEATHER ROUNDUP
NATIONAL WEATHER SERVICE STATE COLLEGE PA
200 PM EST SAT DEC 16 2017

Note: "fair" indicates few or no clouds below 12,000 feet with no
significant weather and/or obstructions to visibility.

* = STATION THAT DOES NOT REPORT PRECIPITATION /E.G. RAIN...SNOW...ETC/
    THUNDER OR FOG.

PAZ002>004-007>009-013>016-020>023-029>032-162000-
WESTERN PENNSYLVANIA

CITY           SKY/WX    TMP DP  RH WIND       PRES   REMARKS
ERIE           LGT SNOW  31  27  85 N5        29.99R FOG
MEADVILLE      LGT SNOW  31  28  89 SW8       29.95F FOG
FRANKLIN*      LGT SNOW  32  26  78 SW8       29.96S
NEW CASTLE     CLOUDY    37  27  67 SW8       30.00S
BEAVER COUNTY  PTSUNNY   39  27  60 SW10      30.00S
BUTLER*        LGT RAIN  36  25  64 SW13      30.00S
PITTSBURGH INT CLOUDY    40  26  57 SW13G22   30.00F
PITTSBURGH     MOSUNNY   37  24  59 SW16G22   30.01S
INDIANA*       PTSUNNY   36  27  69 W13G20    30.02F
LATROBE        PTSUNNY   36  27  69 SW13      30.03F
WASHINGTON CO* CLOUDY    41  26  55 SW15      30.04F
$$

PAZ004>006-010>012-017>019-024>028-033>037-041-042-045-046-049>053-162000-
CENTRAL PENNSYLVANIA

CITY           SKY/WX    TMP DP  RH WIND       PRES   REMARKS
BRADFORD       LGT SNOW  29  26  89 W7        29.89R FOG
DUBOIS         LGT SNOW  31  25  78 W13       29.93S
CLEARFIELD     FLURRIES  34  26  72 SW9       29.94F
JOHNSTOWN      CLOUDY    32  25  75 W15G24    29.95S
ALTOONA        CLOUDY    39  26  59 W21G26    29.98R
STATE COLLEGE  CLOUDY    36  27  69 W15G26    29.96S
WILLIAMSPORT   CLOUDY    40  27  59 W12       29.94S
SELINSGROVE    CLOUDY    39  26  59 W9        29.98S
FT INDIANTOWN  CLOUDY    38  27  64 SW10      29.99S
CAPITAL CITY   CLOUDY    43  22  43 SW7       30.00F
HARRISBURG     CLOUDY    41  25  53 SW5       30.00F
YORK           CLOUDY    43  23  45 SW8       30.01F
$$

PAZ038>040-043-044-047-048-054-055-060>062-067>071-162000-
EASTERN PENNSYLVANIA

CITY           SKY/WX    TMP DP  RH WIND       PRES   REMARKS
SCRANTON       CLOUDY    32  23  69 SW9       29.93R
MOUNT POCONO   CLOUDY    27  21  78 W13       29.88R
ALLENTOWN      CLOUDY    36  23  59 SW12      29.98F
QUAKERTOWN*    CLOUDY    36  23  60 SW8       30.00S
READING        CLOUDY    38  27  64 SW9G18    30.00F
LANCASTER      PTSUNNY   41  25  53 SW16      30.01F
COATESVILLE    CLOUDY    37  23  56 SW8       30.02S
POTTSTOWN      CLOUDY    36  22  56 VRB7      30.03S
BLUE BELL      CLOUDY    36  27  69 SW9       30.03F
DOYLESTOWN     CLOUDY    37  23  56 SW13G22   29.99S
WILLOW GROVE   NOT AVBL
NORTH PHILA    PTSUNNY   41  25  53 SW14G23   30.04S
PHILADELPHIA   PTSUNNY   41  24  51 SW18G25   30.05F
$$




USA.gov is the U.S. government's official web portal to all federal, state and local government web resources and services.